[[{"header":{"parameterUnit":"m.s-1","parameterCategory":1,"la1":30.2991,"la2":30.254,"lo1":-89.0895,"lo2":-89.0444,"dy":0.0017,"dx":0.0017,"nx":28,"ny":28,"refTime":"2025-02-08T09:00:00:Z","depth":0,"parameterNumber":2,"parameterNumberName":"U-component_of_WINDS"},"data":[0,0,0,0,0,0,0,0,0,0,0,0,0,0,0,0,0,0,0,0,0,0,0,0,0,0,0,0,0,0,0,0,0,0,0,0,0,0,0,0,0,0,0,0,0,0,0,0,0,0,0,0,0,0,0,0,0,0,-1.7398,-1.7398,0,-1.7375,-1.7375,-1.7374,-1.7313,-1.7312,-1.7311,-1.731,-1.7288,-1.7288,-1.7289,0,0,0,0,0,0,0,0,0,0,0,0,0,-1.7392,-1.7393,-1.7398,-1.7398,-1.7398,-1.7375,-1.7375,-1.7374,-1.7314,-1.7312,-1.7311,-1.7309,-1.7288,-1.7288,-1.7289,0,0,0,0,0,0,0,0,0,0,0,0,0,-1.7385,-1.7393,-1.7398,-1.7365,-1.7361,-1.7375,-1.7374,-1.7374,-1.7314,-1.7312,-1.731,-1.7308,-1.7287,-1.7288,-1.7289,-1.7334,0,0,-1.7292,-1.7292,0,0,0,0,0,0,0,0,-1.7385,-1.7385,-1.737,-1.7367,-1.7363,-1.7345,-1.7364,-1.7361,-1.7315,-1.7332,-1.731,-1.7307,-1.7309,-1.7308,-1.7308,-1.7333,-1.7332,-1.7292,-1.7293,-1.7293,-1.7293,0,0,0,0,0,0,0,-1.7386,-1.7386,-1.7389,-1.737,-1.7366,-1.7351,-1.7348,-1.7363,-1.7332,-1.733,-1.7326,-1.7324,-1.7306,-1.7307,-1.7307,-1.7332,-1.7292,-1.7293,-1.7293,-1.7294,-1.7392,-1.7394,0,0,0,0,0,0,-1.7391,-1.7386,-1.739,-1.7388,-1.737,-1.7353,-1.7349,-1.7353,-1.7331,-1.7326,-1.7326,-1.7321,-1.7306,-1.7306,-1.7306,-1.7356,-1.7293,-1.7294,-1.7294,-1.739,-1.7392,-1.7394,0,0,0,0,0,0,-1.7391,-1.7392,-1.7391,-1.7386,-1.7385,-1.7355,-1.736,-1.7354,-1.7354,-1.7328,-1.7322,-1.7332,-1.7305,-1.7304,-1.7327,-1.7354,-1.7294,-1.7295,-1.7387,-1.739,-1.7393,-1.7457,0,0,0,0,0,0,-1.7391,-1.7392,-1.7409,-1.7387,-1.7385,-1.7412,-1.7361,-1.7354,-1.7355,-1.7349,-1.7332,-1.7327,-1.7303,-1.7326,-1.7328,-1.7354,-1.7296,-1.7385,-1.7389,-1.7392,-1.7452,-1.7462,-1.747,0,0,0,0,0,-1.7391,-1.7428,-1.741,-1.741,-1.7405,-1.7414,-1.7413,-1.7384,-1.7358,-1.7374,-1.7357,-1.7328,-1.7351,-1.7329,-1.733,-1.7358,-1.7383,-1.7388,-1.7392,-1.7448,-1.746,-1.747,0,0,0,0,0,0,-1.7455,-1.7425,-1.7404,-1.7435,-1.7427,-1.7404,-1.7423,-1.7397,-1.7398,-1.7392,-1.7357,-1.7353,-1.7381,-1.7372,-1.7347,-1.7399,-1.7362,-1.7367,-1.7404,-1.7415,-1.7424,-1.7425,-1.7297,0,0,0,0,0,-1.7472,-1.7481,-1.7455,-1.7485,-1.7482,-1.7454,-1.7456,-1.7434,-1.7425,-1.7422,-1.7407,-1.74,-1.7405,-1.741,-1.7414,-1.7451,-1.7446,-1.747,-1.7479,-1.7487,-1.7491,-1.7509,-1.7519,-1.7409,-1.7409,-1.7409,0,0,-1.7509,-1.7493,-1.7501,-1.7497,-1.7489,-1.7499,-1.7451,-1.7464,-1.7472,-1.7424,-1.7444,-1.7433,-1.7423,-1.7453,-1.7465,-1.7446,-1.752,-1.7492,-1.7498,-1.7499,-1.7515,-1.7525,-1.7535,-1.7412,-1.7412,-1.7411,0,0,-1.758,-1.757,-1.7593,-1.7585,-1.7572,-1.7553,-1.7559,-1.7539,-1.7529,-1.7549,-1.7513,-1.7522,-1.7532,-1.7526,-1.7524,-1.7593,-1.7566,-1.7596,-1.7641,-1.7659,-1.7668,-1.7675,-1.7699,-1.7708,-1.76,-1.7601,-1.7601,0,-1.7627,-1.764,-1.7608,-1.7623,-1.7622,-1.7579,-1.7602,-1.7597,-1.7587,-1.7587,-1.7565,-1.7577,-1.7567,-1.7595,-1.7611,-1.7612,-1.7617,-1.7597,-1.7669,-1.7676,-1.7683,-1.7705,-1.7714,-1.7604,-1.7604,-1.7603,-1.7603,0,-1.7698,-1.7708,-1.7729,-1.7719,-1.772,-1.774,-1.771,-1.7716,-1.7694,-1.7677,-1.7698,-1.7684,-1.7684,-1.7689,-1.7669,-1.7714,-1.7702,-1.7676,-1.7637,-1.7698,-1.7718,-1.7726,-1.7609,-1.7608,-1.7607,-1.7606,0,0,-1.7809,-1.778,-1.7788,-1.7782,-1.7765,-1.7773,-1.779,-1.7789,-1.7794,-1.7789,-1.7802,-1.7812,-1.7787,-1.7785,-1.7764,-1.778,-1.7834,-1.7751,-1.775,-1.7766,-1.7881,-1.79,-1.7911,-1.7816,-1.7817,-1.7818,-1.7882,0,-1.7875,-1.7902,-1.7873,-1.7906,-1.7915,-1.7874,-1.7889,-1.788,-1.7865,-1.7871,-1.7854,-1.7861,-1.7828,-1.7827,-1.7841,-1.7824,-1.7856,-1.7819,-1.7827,-1.7828,-1.783,-1.7921,-1.7942,-1.8002,-1.7889,-1.7891,-1.7892,0,-1.7956,-1.7953,-1.7986,-1.7966,-1.7969,-1.7983,-1.7979,-1.7985,-1.7974,-1.7962,-1.796,-1.7933,-1.7949,-1.7912,-1.7933,-1.7909,-1.7911,-1.7903,-1.7905,-1.7904,-1.7863,-1.7922,-1.8021,-1.803,-1.7904,-1.7903,-1.7902,0,-1.8032,-1.8036,-1.8056,-1.8053,-1.8031,-1.8041,-1.8032,-1.802,-1.8021,-1.8018,-1.8018,-1.8018,-1.8017,-1.8018,-1.7992,-1.7968,-1.8016,-1.7977,-1.8006,-1.8007,-1.8017,-1.8017,-1.8117,-1.8021,-1.8021,-1.802,-1.802,0,-1.8108,-1.813,-1.809,-1.8103,-1.8126,-1.8093,-1.8117,-1.8104,-1.8093,-1.8103,-1.8068,-1.8078,-1.8043,-1.805,-1.803,-1.805,-1.805,-1.8041,-1.8035,-1.8043,-1.8044,-1.8043,-1.8038,-1.8023,-1.8022,-1.8022,-1.8021,0,-1.8196,-1.817,-1.819,-1.8166,-1.8161,-1.8179,-1.8159,-1.817,-1.8152,-1.8165,-1.8166,-1.8139,-1.8144,-1.8118,-1.812,-1.8106,-1.8136,-1.8124,-1.8139,-1.8135,-1.8165,-1.8162,-1.8267,-1.8279,-1.8176,-1.8177,-1.8178,0,-1.8246,-1.8262,-1.824,-1.8243,-1.8236,-1.8242,-1.8242,-1.8211,-1.8213,-1.8202,-1.8214,-1.8216,-1.8216,-1.8227,-1.8207,-1.8208,-1.8195,-1.8232,-1.8195,-1.8202,-1.8194,-1.8193,-1.8194,-1.8239,-1.824,-1.8241,-1.8242,0,-1.8337,-1.8323,-1.8325,-1.8322,-1.8323,-1.832,-1.8314,-1.8319,-1.8285,-1.8289,-1.8293,-1.8294,-1.8294,-1.8297,-1.8293,-1.8285,-1.8258,-1.8254,-1.826,-1.8269,-1.8276,-1.8271,-1.8159,-1.8252,-1.8251,-1.825,-1.8249,-1.8249,-1.8407,-1.8418,-1.8404,-1.8407,-1.8399,-1.8394,-1.8403,-1.8386,-1.8389,-1.8386,-1.8368,-1.8376,-1.8364,-1.8357,-1.8351,-1.8357,-1.8339,-1.8349,-1.8351,-1.8354,-1.8358,-1.8276,-1.8356,-1.8356,-1.8356,-1.8355,-1.8355,0,-1.8495,-1.8484,-1.8487,-1.8479,-1.8481,-1.8455,-1.8447,-1.8451,-1.8458,-1.8449,-1.845,-1.8455,-1.8457,-1.8438,-1.8437,-1.8446,-1.8433,-1.8447,-1.8445,-1.8443,-1.8375,-1.8368,-1.8456,-1.8456,-1.8456,-1.8456,-1.8456,-1.8456,-1.8541,-1.8559,-1.8544,-1.8557,-1.8546,-1.8553,-1.855,-1.8546,-1.8538,-1.8545,-1.8546,-1.8533,-1.852,-1.8519,-1.8519,-1.8514,-1.8515,-1.8532,-1.8522,-1.8458,-1.8448,-1.8439,-1.8433,-1.8533,-1.8533,-1.859,-1.8591,-1.8591]},{"header":{"parameterUnit":"m.s-1","parameterCategory":1,"la1":30.2991,"la2":30.254,"lo1":-89.0895,"lo2":-89.0444,"dy":0.0017,"dx":0.0017,"nx":28,"ny":28,"refTime":"2025-02-08T09:00:00:Z","depth":0,"parameterNumber":3,"parameterNumberName":"V-component_of_WINDS"},"data":[0,0,0,0,0,0,0,0,0,0,0,0,0,0,0,0,0,0,0,0,0,0,0,0,0,0,0,0,0,0,0,0,0,0,0,0,0,0,0,0,0,0,0,0,0,0,0,0,0,0,0,0,0,0,0,0,0,0,-0.1357,-0.1357,0,-0.1296,-0.1296,-0.1295,-0.1281,-0.1281,-0.1282,-0.1282,-0.1218,-0.1216,-0.1214,0,0,0,0,0,0,0,0,0,0,0,0,0,-0.1459,-0.1457,-0.1357,-0.1357,-0.1356,-0.1296,-0.1296,-0.1295,-0.1281,-0.1281,-0.1282,-0.1282,-0.1219,-0.1216,-0.1214,0,0,0,0,0,0,0,0,0,0,0,0,0,-0.1408,-0.1457,-0.1358,-0.1342,-0.134,-0.1297,-0.1296,-0.1295,-0.1281,-0.1281,-0.1282,-0.1283,-0.122,-0.1216,-0.1213,-0.1181,0,0,-0.1204,-0.1202,0,0,0,0,0,0,0,0,-0.1411,-0.1404,-0.1345,-0.1343,-0.1341,-0.1297,-0.1308,-0.1256,-0.1281,-0.1303,-0.1282,-0.1283,-0.1244,-0.1239,-0.1226,-0.1178,-0.1175,-0.1203,-0.1201,-0.12,-0.1199,0,0,0,0,0,0,0,-0.1414,-0.1407,-0.1333,-0.1344,-0.1341,-0.1337,-0.133,-0.1298,-0.127,-0.1301,-0.13,-0.1293,-0.1243,-0.1229,-0.1224,-0.1174,-0.1203,-0.1201,-0.1199,-0.1197,-0.1094,-0.1093,0,0,0,0,0,0,-0.1421,-0.141,-0.1335,-0.1331,-0.1378,-0.1335,-0.1327,-0.131,-0.1271,-0.1265,-0.1293,-0.1293,-0.1234,-0.1228,-0.1222,-0.1179,-0.12,-0.1197,-0.1195,-0.1095,-0.1094,-0.1093,0,0,0,0,0,0,-0.1423,-0.1415,-0.1338,-0.137,-0.136,-0.1332,-0.1313,-0.1309,-0.1295,-0.1264,-0.1259,-0.1284,-0.1234,-0.1226,-0.1191,-0.1177,-0.1196,-0.1193,-0.1096,-0.1094,-0.1093,-0.1095,0,0,0,0,0,0,-0.1426,-0.1415,-0.1404,-0.137,-0.1358,-0.1309,-0.1312,-0.1307,-0.129,-0.1289,-0.1255,-0.1249,-0.1234,-0.1195,-0.1188,-0.1173,-0.119,-0.1097,-0.1095,-0.1094,-0.1096,-0.1094,-0.1092,0,0,0,0,0,-0.143,-0.1407,-0.1403,-0.1394,-0.1343,-0.1308,-0.1301,-0.1284,-0.1289,-0.1276,-0.1256,-0.1251,-0.118,-0.1192,-0.1183,-0.1167,-0.1098,-0.1096,-0.1094,-0.1097,-0.1094,-0.1092,0,0,0,0,0,0,-0.1439,-0.1402,-0.1398,-0.1363,-0.1339,-0.1306,-0.1289,-0.1282,-0.1256,-0.1256,-0.1236,-0.1228,-0.1193,-0.1177,-0.1191,-0.1132,-0.1139,-0.1135,-0.1144,-0.1142,-0.114,-0.1144,-0.1188,0,0,0,0,0,-0.1438,-0.1413,-0.1381,-0.1354,-0.1342,-0.1317,-0.1301,-0.129,-0.1264,-0.1254,-0.1231,-0.1205,-0.1176,-0.1158,-0.1131,-0.1094,-0.1085,-0.1078,-0.1076,-0.1075,-0.1071,-0.1048,-0.1044,-0.1087,-0.1087,-0.1087,0,0,-0.1433,-0.141,-0.1395,-0.1355,-0.1335,-0.1308,-0.1309,-0.1281,-0.1261,-0.1249,-0.1214,-0.1196,-0.1166,-0.1129,-0.1111,-0.1114,-0.1058,-0.1073,-0.1072,-0.1069,-0.1046,-0.1042,-0.1038,-0.1085,-0.1085,-0.1086,0,0,-0.1412,-0.1392,-0.1366,-0.1346,-0.1315,-0.1299,-0.1292,-0.126,-0.1247,-0.1212,-0.1202,-0.1177,-0.1129,-0.1107,-0.1089,-0.1057,-0.1051,-0.1049,-0.1038,-0.1016,-0.1013,-0.1009,-0.0996,-0.0991,-0.1046,-0.1046,-0.1046,0,-0.141,-0.137,-0.1354,-0.1326,-0.1307,-0.1296,-0.1268,-0.1249,-0.121,-0.1197,-0.1201,-0.1139,-0.1118,-0.1074,-0.1066,-0.1053,-0.1044,-0.1052,-0.1015,-0.1011,-0.1008,-0.0995,-0.099,-0.1046,-0.1046,-0.1046,-0.1046,0,-0.1369,-0.1341,-0.1324,-0.1287,-0.1266,-0.1239,-0.1216,-0.1198,-0.1188,-0.1171,-0.1134,-0.1108,-0.1073,-0.1062,-0.1053,-0.1017,-0.1019,-0.1019,-0.1025,-0.1004,-0.0991,-0.0986,-0.1046,-0.1046,-0.1046,-0.1046,0,0,-0.1352,-0.1305,-0.1298,-0.128,-0.1245,-0.1223,-0.1194,-0.116,-0.1144,-0.1117,-0.1091,-0.105,-0.1049,-0.1029,-0.1017,-0.0998,-0.0971,-0.0999,-0.0998,-0.0993,-0.0927,-0.0926,-0.092,-0.0967,-0.0966,-0.0965,-0.0928,0,-0.1324,-0.1273,-0.1256,-0.1212,-0.1185,-0.1173,-0.1147,-0.1122,-0.1105,-0.1079,-0.106,-0.103,-0.1032,-0.102,-0.1,-0.0978,-0.0957,-0.0981,-0.094,-0.0939,-0.0947,-0.0914,-0.0913,-0.088,-0.0923,-0.0923,-0.0922,0,-0.1286,-0.1258,-0.1212,-0.1178,-0.1166,-0.1143,-0.111,-0.1086,-0.1056,-0.1044,-0.1021,-0.101,-0.0978,-0.0986,-0.094,-0.0957,-0.0939,-0.0926,-0.0924,-0.0918,-0.0928,-0.0905,-0.0869,-0.0864,-0.0914,-0.0915,-0.0916,0,-0.1275,-0.1227,-0.1192,-0.1178,-0.1137,-0.1121,-0.1104,-0.1074,-0.1055,-0.1026,-0.1012,-0.098,-0.0962,-0.0936,-0.0915,-0.0924,-0.087,-0.0878,-0.0858,-0.0858,-0.0846,-0.0847,-0.0805,-0.0838,-0.0838,-0.0838,-0.0838,0,-0.1246,-0.1217,-0.1187,-0.1165,-0.1133,-0.1113,-0.1081,-0.1062,-0.1036,-0.1009,-0.0997,-0.0972,-0.0948,-0.0919,-0.0903,-0.0866,-0.0858,-0.0847,-0.0843,-0.0847,-0.0848,-0.0834,-0.0835,-0.0837,-0.0837,-0.0837,-0.0838,0,-0.1228,-0.1207,-0.1168,-0.1133,-0.1123,-0.11,-0.1069,-0.1047,-0.1029,-0.0996,-0.0987,-0.0958,-0.0924,-0.0901,-0.0858,-0.0847,-0.0805,-0.0803,-0.0815,-0.0813,-0.0794,-0.0795,-0.074,-0.073,-0.0771,-0.0771,-0.0771,0,-0.121,-0.1188,-0.115,-0.1131,-0.1113,-0.1084,-0.1064,-0.1043,-0.1022,-0.0985,-0.0966,-0.0931,-0.0902,-0.0847,-0.0822,-0.0788,-0.0783,-0.0766,-0.0778,-0.0782,-0.078,-0.0781,-0.0777,-0.0763,-0.0763,-0.0763,-0.0763,0,-0.1179,-0.1169,-0.1141,-0.1108,-0.1083,-0.1056,-0.1029,-0.1014,-0.0989,-0.0965,-0.093,-0.0907,-0.0862,-0.0826,-0.0789,-0.077,-0.0761,-0.0759,-0.0752,-0.0756,-0.0763,-0.0757,-0.0808,-0.076,-0.0761,-0.0761,-0.0761,-0.0761,-0.116,-0.1138,-0.1108,-0.1075,-0.1052,-0.1027,-0.1004,-0.0982,-0.0953,-0.0914,-0.0903,-0.0866,-0.0834,-0.0784,-0.0763,-0.0733,-0.0734,-0.0725,-0.0723,-0.072,-0.0719,-0.077,-0.0726,-0.0726,-0.0726,-0.0726,-0.0726,0,-0.1127,-0.1106,-0.1076,-0.1038,-0.1012,-0.1007,-0.0976,-0.0954,-0.0921,-0.0893,-0.0864,-0.0822,-0.0787,-0.0758,-0.0721,-0.0702,-0.0697,-0.0693,-0.0693,-0.0688,-0.072,-0.0729,-0.0697,-0.0697,-0.0697,-0.0698,-0.0698,-0.0698,-0.1106,-0.1069,-0.1055,-0.1006,-0.0985,-0.0948,-0.093,-0.0906,-0.0883,-0.0836,-0.0807,-0.0789,-0.0759,-0.072,-0.0687,-0.0679,-0.0665,-0.0662,-0.0653,-0.0683,-0.0686,-0.0689,-0.0697,-0.0659,-0.0659,-0.0623,-0.0623,-0.0622]}]]